Weather History for Dallas Love, TX

Change the Weather History Date:

Friday, November 4, 2011

  Actual Average Record
Temperature  
Mean Temperature 50 °F -  
Max Temperature 64 °F 67 °F 82 °F (2007)
Min Temperature 36 °F 50 °F 36 °F (2011)
Degree Days  
Heating Degree Days 15    
Moisture  
Dew Point 31 °F    
Average Humidity 52    
Maximum Humidity 76    
Minimum Humidity 23    
Precipitation  
Precipitation 0.00 in - - ()
Sea Level Pressure  
Sea Level Pressure 30.19 in    
Wind  
Wind Speed 1 mph (SE)    
Max Wind Speed 6 mph    
Max Gust Speed -    
Visibility 10 miles    
Events      
Averages and records for this station are not official NWS values.
T = Trace of Precipitation, MM = Missing Value Source: NWS Daily Summary

Daily Weather History Graph

Daily Weather History Graph

Search for Another Location

Airport:

Trip Planner

Search our weather history database for the weather conditions in past years. The results will help you decide how hot, cold, wet, or windy it might be!

Date:

Astronomy

Nov. 04, 2011 Rise Set
Actual Time 7:47 AM CDT 6:33 PM CDT
Civil Twilight 7:22 AM CDT 6:59 PM CDT
Nautical Twilight 6:52 AM CDT 7:28 PM CDT
Astronomical Twilight 6:23 AM CDT 7:57 PM CDT
Moon 3:10 PM CDT (11/4) 2:18 AM CDT (11/4)
Length of Visible Light 11h 37m
Length of Day
10h 46m
Waxing Gibbous, 69% of the Moon is Illuminated
Nov 4
Waxing Gibbous
Nov 10
Full
Nov 18
Last Quarter
Nov 25
New
Dec 2
First Quarter

Hourly Weather History & Observations

Time (CDT) Temp. Windchill Dew Point Humidity Pressure Visibility Wind Dir Wind Speed Gust Speed Precip Events Conditions
12:53 AM 41.0 °F - 30.9 °F 67% 30.28 in 10.0 mi Calm Calm - N/A   Clear
1:53 AM 39.9 °F - 30.0 °F 68% 30.27 in 10.0 mi Calm Calm - N/A   Clear
2:53 AM 39.0 °F - 30.0 °F 70% 30.27 in 10.0 mi Calm Calm - N/A   Clear
3:53 AM 37.9 °F - 28.9 °F 70% 30.25 in 10.0 mi Calm Calm - N/A   Clear
4:53 AM 37.9 °F - 28.9 °F 70% 30.25 in 10.0 mi Calm Calm - N/A   Clear
5:53 AM 37.9 °F - 30.0 °F 73% 30.25 in 10.0 mi Calm Calm - N/A   Clear
6:53 AM 36.0 °F - 28.9 °F 76% 30.25 in 10.0 mi Calm Calm - N/A   Clear
7:53 AM 37.9 °F - 30.0 °F 73% 30.25 in 10.0 mi Calm Calm - N/A   Clear
8:53 AM 41.0 °F 38.0 °F 32.0 °F 70% 30.27 in 10.0 mi NW 4.6 mph - N/A   Clear
9:53 AM 46.0 °F - 30.0 °F 54% 30.28 in 10.0 mi Calm Calm - N/A   Clear
10:53 AM 52.0 °F - 30.9 °F 45% 30.27 in 10.0 mi Calm Calm - N/A   Clear
11:53 AM 55.0 °F - 30.9 °F 40% 30.25 in 10.0 mi Calm Calm - N/A   Clear
12:53 PM 59.0 °F - 28.0 °F 31% 30.22 in 10.0 mi West 4.6 mph - N/A   Clear
2:53 PM 63.0 °F - 28.0 °F 27% 30.14 in 10.0 mi Calm Calm - N/A   Partly Cloudy
3:53 PM 63.0 °F - 27.0 °F 26% 30.12 in 10.0 mi Calm Calm - N/A   Partly Cloudy
4:53 PM 64.0 °F - 25.0 °F 23% 30.11 in 10.0 mi SE 3.5 mph - N/A   Partly Cloudy
5:53 PM 62.1 °F - 28.0 °F 28% 30.10 in 10.0 mi Calm Calm - N/A   Partly Cloudy
6:53 PM 59.0 °F - 30.0 °F 33% 30.09 in 10.0 mi South 5.8 mph - N/A   Partly Cloudy
7:53 PM 57.9 °F - 32.0 °F 37% 30.09 in 10.0 mi SE 4.6 mph - N/A   Clear
8:53 PM 53.1 °F - 36.0 °F 52% 30.10 in 10.0 mi Calm Calm - N/A   Clear
9:53 PM 52.0 °F - 35.1 °F 53% 30.10 in 10.0 mi SE 5.8 mph - N/A   Clear
10:53 PM 53.1 °F - 35.1 °F 50% 30.10 in 10.0 mi ESE 5.8 mph - N/A   Clear
11:53 PM 50.0 °F - 36.0 °F 59% 30.09 in 10.0 mi ESE 4.6 mph - N/A   Clear